• In Hungary
  • List of Countries
  • For 7 days
  • Water Temperature
  • Satellite Maps
  • Weather Map
  • News
  • Weather Widgets
  • user-avatar
    Login

    Hourly Weather Tienen

    Today, 21 February, Wednesday

    Time Temperature Precipitation Wind Pressure Humidity
    00:00 -2°C° 0 mm 3 mps 762 mmHg 81%
    01:00 -2°C° 0 mm 3 mps 762 mmHg 82%
    02:00 -2°C° 0 mm 3 mps 762 mmHg 83%
    03:00 -4°C° 0 mm 3 mps 763 mmHg 84%
    04:00 -3°C° 0 mm 2 mps 763 mmHg 84%
    05:00 -3°C° 0 mm 2 mps 763 mmHg 84%
    06:00 -3°C° 0 mm 2 mps 763 mmHg 84%
    07:00 -2°C° 0 mm 3 mps 763 mmHg 78%
    08:00 -1°C° 0 mm 3 mps 763 mmHg 72%
    09:00 0°C° 0 mm 3 mps 763 mmHg 66%
    10:00 0°C° 0 mm 4 mps 763 mmHg 62%
    11:00 +1°C° 0 mm 4 mps 763 mmHg 57%
    12:00 +4°C° 0 mm 4 mps 763 mmHg 53%
    13:00 +4°C° 0 mm 4 mps 763 mmHg 53%
    14:00 +4°C° 0 mm 4 mps 762 mmHg 52%
    15:00 +4°C° 0 mm 4 mps 762 mmHg 52%
    16:00 +1°C° 0 mm 4 mps 762 mmHg 58%
    17:00 +1°C° 0 mm 3 mps 762 mmHg 63%
    18:00 0°C° 0 mm 3 mps 762 mmHg 69%
    19:00 -1°C° 0 mm 3 mps 762 mmHg 71%
    20:00 -1°C° 0 mm 3 mps 762 mmHg 73%
    21:00 -2°C° 0 mm 3 mps 763 mmHg 75%
    22:00 -2°C° 0 mm 3 mps 763 mmHg 76%
    23:00 -2°C° 0 mm 3 mps 763 mmHg 77%

    Tomorrow, 22 February, Thursday

    Time Temperature Precipitation Wind Pressure Humidity
    00:00 -2°C° 0 mm 3 mps 763 mmHg 79%
    01:00 -2°C° 0 mm 3 mps 762 mmHg 79%
    02:00 -4°C° 0 mm 3 mps 762 mmHg 79%
    03:00 -4°C° 0 mm 3 mps 762 mmHg 79%
    04:00 -4°C° 0 mm 3 mps 762 mmHg 78%
    05:00 -4°C° 0 mm 3 mps 762 mmHg 78%
    06:00 -4°C° 0 mm 4 mps 762 mmHg 78%
    07:00 -3°C° 0 mm 4 mps 762 mmHg 71%
    08:00 -2°C° 0 mm 5 mps 762 mmHg 65%
    09:00 -1°C° 0 mm 5 mps 762 mmHg 58%
    10:00 -1°C° 0 mm 6 mps 762 mmHg 52%
    11:00 +1°C° 0 mm 6 mps 762 mmHg 46%
    12:00 +2°C° 0 mm 6 mps 762 mmHg 40%
    13:00 +2°C° 0 mm 6 mps 761 mmHg 40%
    14:00 +2°C° 0 mm 6 mps 761 mmHg 40%
    15:00 +2°C° 0 mm 6 mps 761 mmHg 40%
    16:00 +1°C° 0 mm 5 mps 761 mmHg 46%
    17:00 0°C° 0 mm 5 mps 761 mmHg 52%
    18:00 -1°C° 0 mm 4 mps 761 mmHg 57%
    19:00 -2°C° 0 mm 4 mps 761 mmHg 60%
    20:00 -2°C° 0 mm 4 mps 762 mmHg 63%
    21:00 -3°C° 0 mm 4 mps 762 mmHg 66%
    22:00 -3°C° 0 mm 4 mps 762 mmHg 68%
    23:00 -3°C° 0 mm 4 mps 762 mmHg 70%

    Day after tomorrow, 23 February, Friday

    Time Temperature Precipitation Wind Pressure Humidity
    00:00 -4°C° 0 mm 4 mps 762 mmHg 71%
    01:00 -4°C° 0 mm 4 mps 761 mmHg 72%
    02:00 -4°C° 0 mm 4 mps 761 mmHg 72%
    03:00 -4°C° 0 mm 4 mps 761 mmHg 72%
    04:00 -4°C° 0 mm 4 mps 761 mmHg 71%
    05:00 -4°C° 0 mm 4 mps 761 mmHg 70%
    06:00 -4°C° 0 mm 4 mps 761 mmHg 70%
    07:00 -4°C° 0 mm 5 mps 761 mmHg 63%
    08:00 -4°C° 0 mm 6 mps 761 mmHg 57%
    09:00 -3°C° 0 mm 6 mps 762 mmHg 51%
    10:00 -2°C° 0 mm 6 mps 761 mmHg 46%
    11:00 -1°C° 0 mm 6 mps 761 mmHg 41%
    12:00 +1°C° 0 mm 6 mps 761 mmHg 36%
    13:00 +2°C° 0 mm 6 mps 760 mmHg 35%
    14:00 +2°C° 0 mm 6 mps 760 mmHg 35%
    15:00 +2°C° 0 mm 6 mps 760 mmHg 34%
    16:00 +1°C° 0 mm 6 mps 760 mmHg 37%
    17:00 -1°C° 0 mm 5 mps 760 mmHg 40%
    18:00 -2°C° 0 mm 5 mps 760 mmHg 43%
    19:00 -2°C° 0 mm 5 mps 760 mmHg 44%
    20:00 -4°C° 0 mm 5 mps 760 mmHg 44%
    21:00 -4°C° 0 mm 5 mps 761 mmHg 45%
    22:00 -4°C° 0 mm 5 mps 761 mmHg 46%
    23:00 -4°C° 0 mm 5 mps 761 mmHg 47%

    24 February, Saturday

    Time Temperature Precipitation Wind Pressure Humidity
    00:00 -5°C° 0 mm 5 mps 761 mmHg 48%
    01:00 -5°C° 0 mm 5 mps 761 mmHg 48%
    02:00 -5°C° 0 mm 5 mps 760 mmHg 47%
    03:00 -5°C° 0 mm 5 mps 760 mmHg 47%
    04:00 -5°C° 0 mm 5 mps 760 mmHg 46%
    05:00 -5°C° 0 mm 5 mps 760 mmHg 44%
    06:00 -5°C° 0 mm 5 mps 761 mmHg 43%
    07:00 -4°C° 0 mm 6 mps 761 mmHg 40%
    08:00 -3°C° 0 mm 6 mps 761 mmHg 37%
    09:00 -2°C° 0 mm 7 mps 761 mmHg 34%
    10:00 -1°C° 0 mm 7 mps 761 mmHg 32%
    11:00 0°C° 0 mm 7 mps 761 mmHg 31%
    12:00 +3°C° 0 mm 7 mps 761 mmHg 30%
    13:00 +3°C° 0 mm 7 mps 761 mmHg 31%
    14:00 +3°C° 0 mm 7 mps 761 mmHg 32%
    15:00 +3°C° 0 mm 7 mps 760 mmHg 33%
    16:00 +2°C° 0 mm 6 mps 761 mmHg 37%
    17:00 -1°C° 0 mm 6 mps 761 mmHg 42%
    18:00 -2°C° 0 mm 6 mps 762 mmHg 46%
    19:00 -2°C° 0 mm 6 mps 762 mmHg 48%
    20:00 -3°C° 0 mm 6 mps 763 mmHg 49%
    21:00 -3°C° 0 mm 6 mps 763 mmHg 50%
    22:00 -4°C° 0 mm 6 mps 763 mmHg 52%
    23:00 -4°C° 0 mm 5 mps 764 mmHg 54%

    25 February, Sunday

    Time Temperature Precipitation Wind Pressure Humidity
    00:00 -4°C° 0 mm 5 mps 764 mmHg 55%
    01:00 -5°C° 0 mm 5 mps 764 mmHg 56%
    02:00 -5°C° 0 mm 5 mps 764 mmHg 57%
    03:00 -5°C° 0 mm 5 mps 764 mmHg 57%
    04:00 -6°C° 0 mm 6 mps 765 mmHg 56%
    05:00 -6°C° 0 mm 6 mps 765 mmHg 54%
    06:00 -6°C° 0 mm 6 mps 765 mmHg 53%
    07:00 -5°C° 0 mm 6 mps 766 mmHg 48%
    08:00 -5°C° 0 mm 6 mps 766 mmHg 44%
    09:00 -4°C° 0 mm 7 mps 766 mmHg 39%
    10:00 -3°C° 0 mm 7 mps 766 mmHg 37%
    11:00 -2°C° 0 mm 6 mps 766 mmHg 34%
    12:00 -1°C° 0 mm 6 mps 766 mmHg 32%
    13:00 -1°C° 0 mm 6 mps 766 mmHg 32%
    14:00 -1°C° 0 mm 6 mps 766 mmHg 32%
    15:00 -1°C° 0 mm 6 mps 766 mmHg 32%
    16:00 -2°C° 0 mm 5 mps 766 mmHg 34%
    17:00 -4°C° 0 mm 5 mps 767 mmHg 36%
    18:00 -4°C° 0 mm 4 mps 767 mmHg 38%
    19:00 -4°C° 0 mm 4 mps 767 mmHg 38%
    20:00 -5°C° 0 mm 4 mps 767 mmHg 38%
    21:00 -5°C° 0 mm 4 mps 768 mmHg 38%
    22:00 -7°C° 0 mm 4 mps 768 mmHg 38%
    23:00 -6°C° 0 mm 3 mps 768 mmHg 38%

    26 February, Monday

    Time Temperature Precipitation Wind Pressure Humidity
    00:00 -6°C° 0 mm 3 mps 768 mmHg 38%
    01:00 -6°C° 0 mm 3 mps 767 mmHg 37%
    02:00 -6°C° 0 mm 3 mps 767 mmHg 37%
    03:00 -6°C° 0 mm 3 mps 767 mmHg 37%
    04:00 -7°C° 0 mm 3 mps 767 mmHg 37%
    05:00 -8°C° 0 mm 4 mps 767 mmHg 37%
    06:00 -8°C° 0 mm 4 mps 767 mmHg 38%
    07:00 -7°C° 0 mm 4 mps 767 mmHg 36%
    08:00 -7°C° 0 mm 5 mps 767 mmHg 34%
    09:00 -6°C° 0 mm 5 mps 767 mmHg 32%
    10:00 -5°C° 0 mm 5 mps 767 mmHg 29%
    11:00 -5°C° 0 mm 5 mps 766 mmHg 27%
    12:00 -4°C° 0 mm 5 mps 766 mmHg 25%
    13:00 -4°C° 0 mm 5 mps 766 mmHg 25%
    14:00 -4°C° 0 mm 5 mps 765 mmHg 25%
    15:00 -3°C° 0 mm 6 mps 765 mmHg 26%
    16:00 -4°C° 0 mm 5 mps 765 mmHg 30%
    17:00 -4°C° 0 mm 4 mps 765 mmHg 34%
    18:00 -5°C° 0 mm 4 mps 765 mmHg 38%
    19:00 -7°C° 0 mm 4 mps 765 mmHg 40%
    20:00 -7°C° 0 mm 4 mps 765 mmHg 43%
    21:00 -7°C° 0 mm 4 mps 765 mmHg 45%
    22:00 -6°C° 0 mm 3 mps 765 mmHg 47%
    23:00 -6°C° 0 mm 3 mps 765 mmHg 49%
    Show more